Location: Multiple Mirror Telescope
(31.6889°N, 110.8853°W)
Time: 14:22:42
(UTC-07:00)

Hubble Space Telescope - Pass Details

Date: 04 December 2023
Orbit: 516 x 519 km, 28.5° (Epoch: 27 February)

Event Time Altitude Azimuth Distance (km) Brightness Sun altitude
Rises 18:23:07 0° 265° (W) 2,616 6.0 -13.4°
Reaches altitude 10° 18:25:51 10° 247° (WSW) 1,730 4.8 -13.9°
Maximum altitude 18:28:41 19° 201° (SSW) 1,272 3.2 -14.5°
Drops below altitude 10° 18:31:32 10° 156° (SSE) 1,730 3.3 -15.1°
Enters shadow 18:33:40 - 140° (SE) 2,406 3.9 -15.5°
